Regional Weather Roundup
Issued by NWS

Home | Current Version | Previous Version | Graphics & Text | Print | Product List | Glossary On
Versions: 1 2 3 4 5 6 7 8 9 10 11 12 13 14 15 16 17 18 19 20 21 22 23 24 25 26 27 28 29 30 31 32 33 34 35 36 37 38 39 40 41 42 43 44 45 46 47 48 49 50
000
ASUS43 KLOT 300903
RWRIL

ILLINOIS REGIONAL WEATHER ROUNDUP
NATIONAL WEATHER SERVICE CHICAGO/ROMEOVILLE IL
400 AM CDT SUN APR 30 2017

NOTE: "FAIR" INDICATES FEW OR NO CLOUDS BELOW 12,000 FEET WITH NO
SIGNIFICANT WEATHER AND/OR OBSTRUCTIONS TO VISIBILITY.

* THESE STATIONS ARE NOT UNDER NWS QUALITY CONTROL. THEY ALSO MAY NOT
  REPORT WEATHER SUCH AS PRECIPITATION OR FOG.

ILZ001-002-007-009-015-016-024-301000-
NORTHWEST ILLINOIS

CITY           SKY/WX    TMP DP  RH WIND       PRES   REMARKS
MOLINE         CLOUDY    45  41  86 E18       29.90R
STERLING*      CLOUDY    43  41  93 E17G24    29.92R
SAVANNA*       CLOUDY    44  40  88 NE17G23   29.92S
$$

ILZ003-004-008-010-011-017-018-301000-
NORTH CENTRAL ILLINOIS

CITY           SKY/WX    TMP DP  RH WIND       PRES   REMARKS
ROCKFORD       CLOUDY    44  39  82 NE16G25   29.96R
FREEPORT*      CLOUDY    41  40  93 NE17G23   29.95S
ROCHELLE*      CLOUDY    42  41  95 NE20      29.92R
DE KALB*       CLOUDY    42  41  97 NE20      29.91F
PERU*          CLOUDY    43  42  97 NE15      29.88S FOG
$$

ILZ005-006-012>014-019>023-301000-
NORTHEAST ILLINOIS

CITY           SKY/WX    TMP DP  RH WIND       PRES   REMARKS
CHICAGO-OHARE  DRIZZLE   43  40  89 NE17      29.92F
CHICAGO-MIDWAY DRIZZLE   44  43  96 NE21      29.92F FOG
AURORA         CLOUDY    44  42  93 NE18G25   29.89F
LANSING*       LGT RAIN  46  46 100 NE7       29.91S
JOLIET*        CLOUDY    46  45  98 NE10G17   29.90R FOG
WAUKEGAN       CLOUDY    40  40 100 NE18G30   29.94F FOG
DUPAGE AIRPORT CLOUDY    42  42 100 NE14      29.91F FOG
KANKAKEE*      DRIZZLE   48  47  97 NE12      29.88S
WHEELING       CLOUDY    41  41 100 NE13G22   29.95F FOG
MORRIS*        CLOUDY    45  44  96 NE10G17   29.88R
NORTHERLY ISL    N/A     43  42  97 NE17        N/A
$$

LMZ740>746-301000-
SOUTHERN LAKE MICHIGAN

STATION/POSITION SKY/WX   TEMP    WIND        PRES    VSBY  WAVE
                          AIR SEA DIR/SP/G                  HT/PER
                          (F)     (DEG/KT/KT) (MB)    (MI)  (FT/S)
SOUTHERN BUOY              41 40   40/ 17/ 19 1016.0          6/ 6
HARRISON CRIB              43      30/ 20/ 21   N/A
BURNHAM HARBOR             42      20/ 19/ 19   N/A
CALUMET HARBOR             44      10/ 13/ 17 1012.7F
BURNS HARBOR               47      CALM  /  1 1013.5S
MICHIGAN CITY              45      80/  6/  7   N/A
MICHIGAN CITY 6N           46 47                N/A           5/ 7
ST. JOSEPH                 45 46  130/ 14/ 19 1014.3R         4/ 7
$$

ILZ025>027-034>036-040-047-049-050-058-095>099-301000-
WEST-CENTRAL ILLINOIS

CITY           SKY/WX    TMP DP  RH WIND       PRES   REMARKS
QUINCY         RAIN      46  45  96 S3        29.86S
GALESBURG*     CLOUDY    44  44  99 NE12      29.86R FOG
MACOMB*        LGT RAIN  45  45  99 E12       29.87S
JACKSONVILLE*  RAIN      46  45  99 W6        29.87S
PITTSFIELD*    RAIN      46  46  99 CALM      29.87F
$$

ILZ028>032-037-038-041>044-048-051>054-059>061-301000-
CENTRAL ILLINOIS

CITY           SKY/WX    TMP DP  RH WIND       PRES   REMARKS
PONTIAC        LGT RAIN  48  48  99 NE10      29.86F
BLOOMINGTON    LGT RAIN  48  47  96 NE6       29.86F FOG
DECATUR        LGT RAIN  52  52 100 CALM      29.85R FOG
PEORIA         LGT RAIN  46  46 100 E8        29.87R FOG
LACON*         LGT RAIN  45  45 100 NE7       29.86R
LINCOLN*       RAIN      49  49 100 CALM      29.86R
SPRINGFIELD    RAIN      49  48  97 NW3       29.87R FOG
TAYLORVILLE    RAIN      49  49  99 NE5       29.84F
$$

ILZ033-039-045-046-055>057-062-063-301000-
EAST-CENTRAL ILLINOIS

CITY           SKY/WX    TMP DP  RH WIND       PRES   REMARKS
CHAMPAIGN      LGT RAIN  56  54  93 E3        29.85R
RANTOUL*       CLOUDY    57  56  99 NE6       29.84R FOG
MATTOON        LGT RAIN  62  61  96 SE5       29.82R
PARIS*         CLOUDY   N/A N/A N/A SE6       29.84R
$$

ILZ079-100>102-301000-
SOUTHWEST ILLINOIS

CITY           SKY/WX    TMP DP  RH WIND       PRES   REMARKS
ALTON          TSTM      50  49  98 N5        29.81F
BELLEVILLE     TSTM      63  63 100 NE6       29.75F FOG
CAHOKIA*       HVY RAIN  56  53  90 NW10      29.79F FOG
$$

ILZ064>066-069>071-074>076-080>082-084>086-088>090-092>094-301000-
SOUTH-CENTRAL ILLINOIS

CITY           SKY/WX    TMP DP  RH WIND       PRES   REMARKS
CARBONDALE     RAIN      63  63 100 SE8       29.74F FOG
CAIRO*         TSTM      65  64  96 W10       29.83R
EFFINGHAM*     RAIN      63  63 100 E6        29.82F
MARION         HVY RAIN  64  64 100 E9        29.76F
MT. VERNON     RAIN      63  62  97 E6        29.77F
CENTRALIA*     TSTM      63  63  99 NE5       29.76F
SALEM*         TSTM      64  62  93 E5        29.77F
METROPOLIS*    RAIN      66  65  94 S14G29    29.78R
$$

ILZ067-068-072-073-078-083-087-091-301000-
SOUTHEAST ILLINOIS

CITY           SKY/WX    TMP DP  RH WIND       PRES   REMARKS
LAWRENCEVILLE  CLOUDY    64  63  96 E5        29.82F
FLORA*         TSTM      64  63  96 E5        29.79F
FAIRFIELD*     CLOUDY    63  63 100 CALM      29.78F
HARRISBURG*    LGT RAIN  64  63  96 SE8       29.79S
ROBINSON*      CLOUDY    62  62  99 E3        29.83F
CARMI*         CLOUDY    64  63  96 E7        29.79F
$$

ABBREVIATIONS USED IN REMARKS
   TC - TEMPERATURE IN CELSIUS
  WCI - WIND CHILL INDEX
   HX - HEAT INDEX
  VSB - VISIBILITY
$$





USA.gov is the U.S. government's official web portal to all federal, state and local government web resources and services.